WMT2306 LIBD-LATI

Flight info

Callsign WMT2306
Flight time 0h 32m
Altitude 18000
Route VURKE DCT CRAYE/N0367F170 W36 LASTI L607 PETAK
Aircraft A321/M-SDE3FGHIRWY/LB1

Departure

Time 2026-04-21 15:22
Airport Bari Karol Wojtyła International Airport (LIBD)

Arrival

Time 2026-04-21 15:55
Airport Tirana International Airport Mother Teresa (LATI)
Time Latitude Longitude Altitude Speed Heading
2026-04-21 14:48 41.13479 16.76182 158 ft 0 kts 159°
2026-04-21 15:12 41.13489 16.76177 159 ft 4 kts 163°
2026-04-21 15:12 41.13515 16.76170 159 ft 4 kts 178°
2026-04-21 15:13 41.13541 16.76173 159 ft 4 kts 202°
2026-04-21 15:13 41.13560 16.76191 158 ft 2 kts 248°
2026-04-21 15:13 41.13561 16.76194 158 ft 0 kts 249°
2026-04-21 15:16 41.13559 16.76187 158 ft 2 kts 249°
2026-04-21 15:16 41.13553 16.76140 158 ft 7 kts 270°
2026-04-21 15:17 41.13580 16.76085 158 ft 8 kts 320°
2026-04-21 15:17 41.13624 16.76034 158 ft 9 kts 311°
2026-04-21 15:17 41.13632 16.75949 158 ft 11 kts 256°
2026-04-21 15:17 41.13602 16.75843 158 ft 13 kts 249°
2026-04-21 15:18 41.13566 16.75716 158 ft 16 kts 249°
2026-04-21 15:18 41.13523 16.75565 158 ft 19 kts 249°
2026-04-21 15:18 41.13475 16.75392 158 ft 21 kts 250°
2026-04-21 15:18 41.13421 16.75196 158 ft 24 kts 250°
2026-04-21 15:19 41.13362 16.74981 158 ft 25 kts 249°
2026-04-21 15:19 41.13310 16.74811 158 ft 20 kts 249°
2026-04-21 15:19 41.13257 16.74624 158 ft 23 kts 250°
2026-04-21 15:19 41.13199 16.74419 158 ft 23 kts 248°
2026-04-21 15:20 41.13163 16.74285 157 ft 8 kts 258°
2026-04-21 15:20 41.13180 16.74206 157 ft 10 kts 302°
2026-04-21 15:20 41.13233 16.74121 151 ft 11 kts 324°
2026-04-21 15:20 41.13288 16.74110 148 ft 8 kts 23°
2026-04-21 15:21 41.13316 16.74167 149 ft 6 kts 68°
2026-04-21 15:21 41.13319 16.74178 149 ft 0 kts 69°
2026-04-21 15:21 41.13319 16.74179 149 ft 1 kts 69°
2026-04-21 15:21 41.13332 16.74224 150 ft 19 kts 69°
2026-04-21 15:22 41.13470 16.74711 149 ft 91 kts 69°
2026-04-21 15:22 41.13766 16.75761 155 ft 149 kts 69°
2026-04-21 15:22 41.14133 16.77114 643 ft 154 kts 70°
2026-04-21 15:22 41.14517 16.78456 1360 ft 155 kts 67°
2026-04-21 15:23 41.14901 16.79791 2058 ft 158 kts 68°
2026-04-21 15:23 41.15310 16.81235 2393 ft 177 kts 68°
2026-04-21 15:23 41.15609 16.82285 2571 ft 190 kts 68°
2026-04-21 15:23 41.16095 16.83999 2889 ft 207 kts 69°
2026-04-21 15:24 41.16630 16.85865 3118 ft 227 kts 68°
2026-04-21 15:24 41.17208 16.87923 3324 ft 248 kts 68°
2026-04-21 15:24 41.18040 16.90870 4005 ft 262 kts 67°
2026-04-21 15:24 41.18656 16.93175 4641 ft 270 kts 75°
2026-04-21 15:25 41.18774 16.94870 4965 ft 278 kts 92°
2026-04-21 15:25 41.18689 16.97472 5566 ft 286 kts 91°
2026-04-21 15:25 41.18640 17.00145 6183 ft 294 kts 91°
2026-04-21 15:25 41.18597 17.02895 6825 ft 300 kts 91°
2026-04-21 15:26 41.18559 17.05677 7521 ft 303 kts 91°
2026-04-21 15:26 41.18523 17.08503 8212 ft 307 kts 90°
2026-04-21 15:26 41.18483 17.11353 8902 ft 310 kts 91°
2026-04-21 15:26 41.18438 17.14234 9561 ft 315 kts 90°
2026-04-21 15:27 41.18540 17.17153 10159 ft 319 kts 81°
2026-04-21 15:27 41.18852 17.20178 10335 ft 342 kts 81°
2026-04-21 15:27 41.19185 17.23355 10466 ft 363 kts 81°
2026-04-21 15:27 41.19541 17.26764 10618 ft 382 kts 81°
2026-04-21 15:28 41.19908 17.30310 11105 ft 390 kts 81°
2026-04-21 15:28 41.20276 17.33891 11706 ft 393 kts 81°
2026-04-21 15:28 41.20641 17.37506 12322 ft 397 kts 81°
2026-04-21 15:28 41.21007 17.41159 12960 ft 400 kts 81°
2026-04-21 15:29 41.21375 17.44838 13572 ft 404 kts 80°
2026-04-21 15:29 41.21744 17.48555 14121 ft 409 kts 81°
2026-04-21 15:29 41.22113 17.52312 14696 ft 412 kts 80°
2026-04-21 15:29 41.22487 17.56103 15259 ft 415 kts 80°
2026-04-21 15:30 41.22867 17.59909 15800 ft 418 kts 80°
2026-04-21 15:30 41.23254 17.63750 16323 ft 421 kts 80°
2026-04-21 15:30 41.23644 17.67624 16846 ft 425 kts 80°
2026-04-21 15:30 41.24034 17.71543 17374 ft 430 kts 80°
2026-04-21 15:31 41.24423 17.75498 17823 ft 434 kts 80°
2026-04-21 15:31 41.24812 17.79492 17932 ft 440 kts 80°
2026-04-21 15:31 41.25209 17.83590 17943 ft 451 kts 80°
2026-04-21 15:31 41.25608 17.87744 17941 ft 454 kts 80°
2026-04-21 15:32 41.26003 17.91907 17944 ft 455 kts 80°
2026-04-21 15:32 41.26402 17.96078 17939 ft 454 kts 79°
2026-04-21 15:32 41.27188 18.00106 17943 ft 449 kts 65°
2026-04-21 15:32 41.28634 18.03726 17930 ft 439 kts 50°
2026-04-21 15:33 41.30611 18.06719 17944 ft 424 kts 36°
2026-04-21 15:33 41.32953 18.08979 17941 ft 410 kts 23°
2026-04-21 15:33 41.35525 18.10469 17944 ft 398 kts 11°
2026-04-21 15:33 41.38193 18.11195 17943 ft 386 kts
2026-04-21 15:34 41.40848 18.11560 17945 ft 383 kts
2026-04-21 15:34 41.43492 18.11935 17947 ft 380 kts
2026-04-21 15:34 41.46108 18.12360 17945 ft 380 kts
2026-04-21 15:34 41.48672 18.13273 17947 ft 384 kts 14°
2026-04-21 15:35 41.51114 18.14769 17946 ft 388 kts 24°
2026-04-21 15:35 41.53356 18.16809 17943 ft 393 kts 34°
2026-04-21 15:35 41.55385 18.19281 17940 ft 394 kts 38°
2026-04-21 15:35 41.57379 18.21788 17946 ft 393 kts 38°
2026-04-21 15:36 41.59372 18.24291 17949 ft 392 kts 38°
2026-04-21 15:36 41.61354 18.26780 17943 ft 391 kts 38°
2026-04-21 15:36 41.63307 18.29235 17941 ft 390 kts 38°
2026-04-21 15:36 41.65290 18.31726 17935 ft 391 kts 38°
2026-04-21 15:37 41.67260 18.34207 17952 ft 389 kts 38°
2026-04-21 15:37 41.69229 18.36683 17945 ft 388 kts 38°
2026-04-21 15:37 41.71198 18.39159 17946 ft 388 kts 38°
2026-04-21 15:37 41.73161 18.41634 17965 ft 388 kts 38°
2026-04-21 15:38 41.75126 18.44116 17939 ft 389 kts 38°
2026-04-21 15:38 41.77077 18.46621 17950 ft 388 kts 39°
2026-04-21 15:38 41.79009 18.49139 17948 ft 388 kts 39°
2026-04-21 15:38 41.80940 18.51665 17949 ft 387 kts 39°
2026-04-21 15:39 41.82869 18.54190 17944 ft 387 kts 39°
2026-04-21 15:39 41.84798 18.56712 17948 ft 387 kts 39°
2026-04-21 15:39 41.86727 18.59226 17951 ft 386 kts 39°
2026-04-21 15:39 41.88692 18.61689 17944 ft 386 kts 37°
2026-04-21 15:40 41.90691 18.64087 17958 ft 385 kts 36°
2026-04-21 15:40 41.92679 18.66420 17947 ft 385 kts 36°
2026-04-21 15:40 41.94686 18.68818 17946 ft 387 kts 37°
2026-04-21 15:40 41.96686 18.71300 17947 ft 387 kts 38°
2026-04-21 15:41 41.98617 18.73765 17947 ft 387 kts 39°
2026-04-21 15:41 42.00557 18.76272 17952 ft 388 kts 39°
2026-04-21 15:41 42.02497 18.78797 17950 ft 388 kts 41°
2026-04-21 15:41 42.04152 18.81681 17948 ft 394 kts 57°
2026-04-21 15:42 42.05202 18.85107 17949 ft 399 kts 74°
2026-04-21 15:42 42.05544 18.88825 17962 ft 404 kts 91°
2026-04-21 15:42 42.05108 18.92555 17944 ft 406 kts 109°
2026-04-21 15:42 42.03944 18.95998 17949 ft 404 kts 126°
2026-04-21 15:43 42.02183 18.98891 17946 ft 397 kts 139°
2026-04-21 15:43 42.00244 19.01478 17797 ft 382 kts 138°
2026-04-21 15:43 41.98421 19.03903 17525 ft 360 kts 139°
2026-04-21 15:43 41.96658 19.06232 17214 ft 349 kts 139°
2026-04-21 15:44 41.94963 19.08458 16738 ft 335 kts 139°
2026-04-21 15:44 41.93284 19.10654 16294 ft 341 kts 139°
2026-04-21 15:44 41.91573 19.12887 15818 ft 344 kts 139°
2026-04-21 15:44 41.89863 19.15126 15315 ft 342 kts 139°
2026-04-21 15:45 41.88169 19.17350 14819 ft 340 kts 139°
2026-04-21 15:45 41.86486 19.19564 14386 ft 338 kts 139°
2026-04-21 15:45 41.84816 19.21769 13948 ft 336 kts 139°
2026-04-21 15:45 41.83159 19.23961 13469 ft 333 kts 139°
2026-04-21 15:46 41.81514 19.26135 13020 ft 330 kts 139°
2026-04-21 15:46 41.79884 19.28284 12582 ft 328 kts 139°
2026-04-21 15:46 41.78288 19.30390 12124 ft 324 kts 139°
2026-04-21 15:46 41.76761 19.32605 11623 ft 325 kts 133°
2026-04-21 15:47 41.75318 19.34913 10974 ft 320 kts 133°
2026-04-21 15:47 41.73896 19.37189 10365 ft 317 kts 133°
2026-04-21 15:47 41.72486 19.39447 9750 ft 314 kts 133°
2026-04-21 15:47 41.71095 19.41670 9136 ft 310 kts 133°
2026-04-21 15:48 41.69716 19.43867 8548 ft 306 kts 133°
2026-04-21 15:48 41.68360 19.46029 7969 ft 301 kts 133°
2026-04-21 15:48 41.67028 19.48153 7396 ft 295 kts 132°
2026-04-21 15:48 41.65723 19.50248 6833 ft 291 kts 132°
2026-04-21 15:49 41.64618 19.52499 6293 ft 289 kts 116°
2026-04-21 15:49 41.64034 19.55050 5687 ft 288 kts 98°
2026-04-21 15:49 41.64016 19.57718 5096 ft 290 kts 81°
2026-04-21 15:49 41.64063 19.60403 4523 ft 288 kts 102°
2026-04-21 15:50 41.63398 19.62874 4053 ft 275 kts 118°
2026-04-21 15:50 41.62497 19.64990 3959 ft 249 kts 126°
2026-04-21 15:50 41.61508 19.66857 3983 ft 244 kts 128°
2026-04-21 15:50 41.60534 19.68621 4003 ft 231 kts 128°
2026-04-21 15:51 41.59595 19.70321 3869 ft 222 kts 129°
2026-04-21 15:51 41.58677 19.71963 3382 ft 220 kts 135°
2026-04-21 15:51 41.57408 19.72958 3021 ft 212 kts 172°
2026-04-21 15:51 41.55945 19.72952 2805 ft 211 kts 201°
2026-04-21 15:52 41.54627 19.72151 2474 ft 207 kts 205°
2026-04-21 15:52 41.53319 19.71364 2191 ft 204 kts 205°
2026-04-21 15:52 41.51941 19.70891 1940 ft 207 kts 186°
2026-04-21 15:52 41.50552 19.70891 1700 ft 192 kts 179°
2026-04-21 15:53 41.49278 19.71030 1427 ft 176 kts 178°
2026-04-21 15:53 41.48123 19.71178 1227 ft 162 kts 177°
2026-04-21 15:53 41.47043 19.71319 1017 ft 150 kts 176°
2026-04-21 15:53 41.46014 19.71455 770 ft 146 kts 175°
2026-04-21 15:54 41.45012 19.71588 620 ft 147 kts 174°
2026-04-21 15:54 41.43990 19.71718 409 ft 148 kts 174°
2026-04-21 15:54 41.42964 19.71862 226 ft 149 kts 173°
2026-04-21 15:54 41.41952 19.71993 124 ft 135 kts 174°
2026-04-21 15:55 41.41176 19.72097 125 ft 87 kts 174°
2026-04-21 15:55 41.40803 19.72144 133 ft 22 kts 174°
2026-04-21 15:55 41.40718 19.72154 134 ft 9 kts 184°
2026-04-21 15:55 41.40681 19.72100 134 ft 9 kts 251°
2026-04-21 15:56 41.40663 19.72001 132 ft 12 kts 257°
2026-04-21 15:56 41.40643 19.71886 132 ft 13 kts 257°
2026-04-21 15:56 41.40642 19.71795 132 ft 9 kts 305°
2026-04-21 15:56 41.40706 19.71768 132 ft 11 kts 354°
2026-04-21 15:57 41.40784 19.71755 132 ft 12 kts 352°
2026-04-21 15:57 41.40872 19.71734 131 ft 14 kts 348°
2026-04-21 15:57 41.40970 19.71712 128 ft 15 kts 353°
2026-04-21 15:57 41.41079 19.71698 128 ft 17 kts 354°
2026-04-21 15:58 41.41199 19.71682 129 ft 18 kts 354°
2026-04-21 15:58 41.41330 19.71664 128 ft 20 kts 354°
2026-04-21 15:58 41.41471 19.71645 123 ft 21 kts 354°
2026-04-21 15:58 41.41620 19.71625 123 ft 22 kts 354°
2026-04-21 15:59 41.41775 19.71604 121 ft 19 kts 354°
2026-04-21 15:59 41.41875 19.71591 124 ft 13 kts 354°
2026-04-21 15:59 41.41909 19.71580 123 ft 1 kts 311°
2026-04-21 15:59 41.41912 19.71560 123 ft 3 kts 277°
2026-04-21 16:00 41.41911 19.71537 123 ft 2 kts 265°
2026-04-21 16:00 41.41910 19.71526 123 ft 1 kts 264°
2026-04-21 16:00 41.41910 19.71524 123 ft 0 kts 264°